User: anonymous   Login
Location: Iesi
(43.5167°N, 13.2333°E)
Time: 12:04:14
(UTC+00:00)
Language:

Lacrosse 5 - Orbit

View from above orbital plane
View from above orbital plane
View from above satellite
View from above satellite

Ground track
Ground track

The orbit data is extracted from the following two-line orbital elements,

1 28646U 05016A   20294.72399584 0.00000000  00000-0  00000-0 0    05
2 28646  57.0147 248.4121 0005198  54.7881 305.1873 14.51858480    01
Epoch (UTC): 20 October 2020 17:22:33
Eccentricity: 0.0005198
inclination: 57.0147°
perigee height: 716 km
apogee height: 723 km
right ascension of ascending node: 248.4121°
argument of perigee: 54.7881°
revolutions per day: 14.51858480
mean anomaly at epoch: 305.1873°
orbit number at epoch: 0

The dashed part of the orbit path shows where the satellite is in the earth's shadow,  

DLR